GW0381 Weather Reports


time (UTC)temp
C
wind
direction
speed
KPH
gust
KPH
rain 1hr
cm
rain 24hr
cm
rain mn
cm
humidity
%
barometer
mb
20260507214216 7 49 0.0 1.6 0.05 0.36 0.36 90 1017.6
20260507213955 7 0.0 0.0 0.05 0.36 0.36 90 1017.6
20260507213615 7 0.0 0.0 0.03 0.33 0.33 90 1017.6
20260507213316 7 0.0 0.0 0.03 0.33 0.33 90 1017.6
20260507213016 7 0.0 0.0 0.03 0.33 0.33 90 1017.5
20260507212716 7 49 0.0 1.6 0.03 0.33 0.33 90 1017.5
20260507212415 7 0.0 0.0 0.03 0.33 0.33 90 1017.6
20260507212119 7 0.0 0.0 0.03 0.33 0.33 90 1017.4
20260507211816 7 49 0.0 1.6 0.03 0.33 0.33 89 1017.4
20260507211516 7 49 0.0 1.6 0.03 0.33 0.33 89 1017.4
20260507211256 7 49 0.0 1.6 0.03 0.33 0.33 89 1017.4
20260507210919 7 0.0 0.0 0.03 0.33 0.33 89 1017.4
20260507210616 7 49 1.6 3.2 0.03 0.33 0.33 89 1017.4
20260507210316 7 49 1.6 3.2 0.03 0.33 0.33 89 1017.4
20260507210016 7 49 1.6 3.2 0.03 0.33 0.33 89 1017.4
20260507205716 7 49 1.6 4.8 0.03 0.33 0.33 89 1017.4
20260507205416 7 49 1.6 3.2 0.03 0.33 0.33 89 1017.3
20260507205116 7 49 1.6 6.4 0.03 0.33 0.33 89 1017.3
20260507204816 7 49 1.6 4.8 0.03 0.33 0.33 89 1017.2
20260507204516 7 49 3.2 6.4 0.00 0.33 0.33 89 1017.2
20260507204216 7 49 3.2 3.2 0.00 0.33 0.33 89 1017.2
20260507203916 7 49 3.2 4.8 0.03 0.33 0.33 89 1017.2
20260507203616 7 49 3.2 6.4 0.03 0.33 0.33 89 1017.1
20260507203315 7 49 3.2 6.4 0.03 0.33 0.33 89 1017.1
20260507203016 7 49 3.2 4.8 0.03 0.33 0.33 89 1017.1
20260507202716 7 54 3.2 6.4 0.03 0.33 0.33 89 1017.0
20260507202416 7 45 1.6 4.8 0.03 0.33 0.33 89 1017.0
20260507202156 7 46 1.6 4.8 0.03 0.33 0.33 89 1017.0
20260507201816 7 40 3.2 6.4 0.03 0.33 0.33 89 1017.0
20260507201556 7 36 3.2 6.4 0.03 0.33 0.33 89 1016.9
20260507201216 7 37 3.2 4.8 0.03 0.33 0.33 89 1017.0
20260507200915 7 37 1.6 3.2 0.03 0.33 0.33 89 1017.0
20260507200736 7 37 1.6 3.2 0.03 0.33 0.33 89 1016.9
20260507200316 7 37 1.6 6.4 0.03 0.33 0.33 89 1016.9
20260507200016 7 42 3.2 6.4 0.03 0.33 0.33 89 1016.9
20260507195756 7 47 4.8 11.3 0.03 0.33 0.33 89 1016.9
20260507195419 7 39 4.8 16.1 0.03 0.33 0.33 89 1016.9
20260507195116 7 39 1.6 6.4 0.03 0.33 0.33 89 1016.8
20260507194816 7 39 3.2 6.4 0.03 0.33 0.33 89 1016.8
20260507194516 7 39 1.6 4.8 0.03 0.33 0.33 89 1016.7
20260507194215 7 39 1.6 4.8 0.03 0.33 0.33 89 1016.8
20260507193915 7 39 1.6 3.2 0.00 0.30 0.30 89 1016.7
20260507193616 7 39 3.2 4.8 0.00 0.30 0.30 89 1016.7
20260507193316 7 39 1.6 4.8 0.00 0.30 0.30 89 1016.7
20260507193016 7 42 1.6 4.8 0.00 0.30 0.30 89 1016.6
20260507192758 7 40 3.2 4.8 0.00 0.30 0.30 89 1016.6
20260507192456 7 27 1.6 4.8 0.00 0.30 0.30 89 1016.6
20260507192116 7 14 3.2 8.0 0.00 0.30 0.30 89 1016.6
20260507191819 7 354 3.2 4.8 0.00 0.30 0.30 89 1016.6
20260507191515 7 26 1.6 4.8 0.00 0.30 0.30 89 1016.5
20260507191216 7 28 1.6 4.8 0.00 0.30 0.30 89 1016.5
20260507190956 7 17 3.2 6.4 0.00 0.30 0.30 89 1016.4
20260507190616 8 9 3.2 6.4 0.00 0.30 0.30 89 1016.4
20260507190316 8 13 1.6 6.4 0.00 0.30 0.30 89 1016.3
20260507190136 8 13 1.6 6.4 0.00 0.30 0.30 89 1016.3
20260507185716 8 13 1.6 3.2 0.00 0.30 0.30 88 1016.3
20260507185416 8 13 3.2 6.4 0.00 0.30 0.30 88 1016.2
20260507185116 8 12 3.2 8.0 0.00 0.30 0.30 88 1016.2
20260507184816 8 12 3.2 6.4 0.00 0.30 0.30 88 1016.2
20260507184516 8 14 3.2 8.0 0.00 0.30 0.30 88 1016.2
20260507184216 8 24 1.6 8.0 0.00 0.30 0.30 88 1016.1
20260507183916 8 21 1.6 3.2 0.00 0.30 0.30 88 1016.1
20260507183616 8 21 1.6 6.4 0.00 0.30 0.30 88 1016.1
20260507183319 8 21 3.2 6.4 0.00 0.30 0.30 88 1016.1
20260507183016 8 21 3.2 8.0 0.00 0.30 0.30 88 1016.0
20260507182716 8 24 3.2 8.0 0.00 0.30 0.30 88 1016.0
20260507182416 8 25 1.6 6.4 0.00 0.30 0.30 88 1016.0
20260507182116 8 29 3.2 4.8 0.00 0.30 0.30 87 1015.9
20260507181816 8 22 3.2 6.4 0.00 0.30 0.30 87 1015.9
20260507181516 8 20 3.2 8.0 0.00 0.30 0.30 87 1015.9
20260507181216 8 38 3.2 9.7 0.00 0.30 0.30 87 1015.8
20260507180916 8 18 3.2 8.0 0.00 0.30 0.30 87 1015.8
20260507180616 8 26 1.6 6.4 0.00 0.30 0.30 87 1015.8
20260507180356 8 34 3.2 6.4 0.00 0.30 0.30 87 1015.8
20260507180016 8 34 3.2 6.4 0.00 0.30 0.30 87 1015.8
20260507175716 8 26 3.2 6.4 0.00 0.30 0.30 87 1015.8
20260507175416 8 36 3.2 8.0 0.00 0.30 0.30 87 1015.8
20260507175115 8 39 4.8 9.7 0.00 0.30 0.30 87 1015.7
20260507174817 8 27 3.2 8.0 0.00 0.30 0.30 87 1015.8
20260507174516 8 36 3.2 6.4 0.00 0.30 0.30 87 1015.7
20260507174215 8 43 1.6 4.8 0.00 0.30 0.30 86 1015.7
20260507173916 8 43 1.6 4.8 0.00 0.30 0.30 86 1015.7
20260507173736 8 35 3.2 6.4 0.00 0.30 0.30 86 1015.8
20260507173316 8 36 6.4 12.9 0.00 0.30 0.30 86 1015.7
20260507173018 8 28 6.4 14.5 0.00 0.30 0.30 86 1015.7
20260507172716 8 28 3.2 9.7 0.00 0.30 0.30 86 1015.7
20260507172415 8 41 1.6 8.0 0.00 0.30 0.30 86 1015.7
20260507172116 8 37 3.2 11.3 0.00 0.30 0.30 86 1015.6
20260507171818 8 37 3.2 8.0 0.00 0.30 0.30 86 1015.6
20260507171515 8 36 4.8 8.0 0.00 0.30 0.30 86 1015.5
20260507171216 8 51 3.2 8.0 0.00 0.30 0.30 85 1015.5
20260507170916 8 36 4.8 11.3 0.00 0.30 0.30 86 1015.5
20260507170615 8 40 6.4 12.9 0.00 0.30 0.30 86 1015.5
20260507170316 8 38 4.8 8.0 0.00 0.30 0.30 85 1015.5
20260507170016 8 44 4.8 11.3 0.00 0.30 0.30 86 1015.5
20260507165716 8 31 6.4 17.7 0.00 0.30 0.30 85 1015.6
20260507165456 8 28 4.8 11.3 0.00 0.30 0.30 86 1015.5
20260507165116 8 52 4.8 14.5 0.00 0.30 0.30 86 1015.5
20260507164815 8 22 4.8 11.3 0.00 0.30 0.30 86 1015.5
20260507164515 8 25 6.4 12.9 0.00 0.30 0.30 85 1015.5
20260507164216 8 40 4.8 12.9 0.00 0.30 0.30 86 1015.4
20260507163915 8 34 6.4 12.9 0.00 0.30 0.30 86 1015.4
20260507163615 8 20 6.4 11.3 0.00 0.30 0.30 86 1015.3
20260507163316 8 29 8.0 14.5 0.00 0.30 0.30 86 1015.3
20260507163019 8 30 6.4 12.9 0.00 0.30 0.30 86 1015.3
20260507162716 8 37 8.0 17.7 0.00 0.30 0.30 86 1015.3
20260507162415 8 29 4.8 9.7 0.00 0.30 0.30 87 1015.3
20260507162116 8 35 4.8 14.5 0.00 0.30 0.30 86 1015.4
20260507161816 8 35 4.8 11.3 0.00 0.30 0.30 86 1015.4
20260507161516 8 38 6.4 12.9 0.03 0.30 0.30 86 1015.4
20260507161256 8 44 8.0 12.9 0.03 0.30 0.30 86 1015.3
20260507160916 8 46 8.0 16.1 0.03 0.30 0.30 86 1015.3
20260507160659 8 35 8.0 16.1 0.03 0.30 0.30 86 1015.4
20260507160316 8 52 8.0 12.9 0.03 0.30 0.30 86 1015.4
20260507160016 8 41 8.0 12.9 0.03 0.30 0.30 86 1015.4
20260507155756 8 37 6.4 12.9 0.03 0.30 0.30 86 1015.3
20260507155456 8 34 6.4 14.5 0.03 0.30 0.30 86 1015.3
20260507155156 8 47 6.4 11.3 0.03 0.30 0.30 86 1015.3
20260507154816 8 43 4.8 9.7 0.03 0.30 0.30 87 1015.4
20260507154515 8 45 8.0 14.5 0.03 0.30 0.30 87 1015.4
20260507154216 8 36 6.4 12.9 0.03 0.30 0.30 87 1015.4
20260507153916 8 35 8.0 16.1 0.03 0.30 0.30 86 1015.4
20260507153659 8 55 6.4 16.1 0.03 0.30 0.30 86 1015.4
20260507153356 8 54 8.0 16.1 0.03 0.30 0.30 87 1015.4
20260507153056 8 58 6.4 14.5 0.05 0.30 0.30 87 1015.4
20260507152716 8 41 4.8 12.9 0.05 0.30 0.30 86 1015.3
20260507152415 8 38 6.4 14.5 0.05 0.30 0.30 86 1015.3
20260507152115 8 43 6.4 12.9 0.05 0.30 0.30 86 1015.3
20260507151819 8 47 9.7 17.7 0.05 0.30 0.30 87 1015.2
20260507151516 8 41 9.7 19.3 0.03 0.28 0.28 87 1015.2
20260507151216 8 43 6.4 14.5 0.03 0.28 0.28 87 1015.2
20260507150915 8 46 8.0 14.5 0.03 0.28 0.28 87 1015.2
20260507150616 8 44 3.2 11.3 0.03 0.28 0.28 87 1015.1
20260507150316 8 36 6.4 12.9 0.03 0.28 0.28 87 1015.1
20260507150016 8 41 6.4 14.5 0.05 0.28 0.28 87 1015.0
20260507145716 8 37 6.4 12.9 0.05 0.28 0.28 87 1015.0
20260507145416 8 34 6.4 16.1 0.05 0.28 0.28 87 1015.0
20260507145116 8 43 8.0 16.1 0.05 0.28 0.28 87 1014.9
20260507144816 8 39 4.8 14.5 0.05 0.28 0.28 87 1014.9
20260507144516 8 34 4.8 11.3 0.05 0.28 0.28 87 1014.9
20260507144215 8 39 8.0 14.5 0.05 0.28 0.28 87 1014.9
20260507143917 8 41 8.0 12.9 0.05 0.28 0.28 87 1014.8
20260507143615 8 45 6.4 12.9 0.05 0.28 0.28 87 1014.9
20260507143316 8 46 8.0 16.1 0.05 0.28 0.28 87 1014.9
20260507143016 8 44 11.3 19.3 0.03 0.25 0.25 87 1014.8
20260507142719 8 43 8.0 17.7 0.03 0.25 0.25 87 1014.8
20260507142416 8 47 9.7 17.7 0.03 0.25 0.25 87 1014.8
20260507142115 8 34 9.7 17.7 0.03 0.25 0.25 87 1014.8
20260507141819 8 44 8.0 16.1 0.03 0.25 0.25 87 1014.8
20260507141556 8 37 8.0 14.5 0.03 0.25 0.25 87 1014.7
20260507141216 8 34 9.7 20.9 0.03 0.25 0.25 87 1014.7
20260507140916 8 47 8.0 19.3 0.05 0.25 0.25 88 1014.7
20260507140616 8 27 8.0 22.5 0.05 0.25 0.25 88 1014.7
20260507140316 8 48 3.2 12.9 0.05 0.25 0.25 88 1014.7
20260507140015 8 38 8.0 16.1 0.03 0.23 0.23 88 1014.6
20260507135716 8 32 9.7 16.1 0.03 0.23 0.23 88 1014.6
20260507135416 8 29 8.0 17.7 0.03 0.23 0.23 88 1014.6
20260507135116 8 41 9.7 19.3 0.03 0.23 0.23 88 1014.7
20260507134856 8 39 9.7 22.5 0.05 0.23 0.23 88 1014.6
20260507134516 8 33 8.0 16.1 0.05 0.23 0.23 88 1014.6
20260507134336 8 26 9.7 19.3 0.05 0.23 0.23 88 1014.5
20260507133918 8 30 9.7 19.3 0.05 0.23 0.23 88 1014.5
20260507133656 8 23 6.4 14.5 0.05 0.23 0.23 88 1014.4
20260507133316 8 20 8.0 20.9 0.05 0.23 0.23 88 1014.4
20260507133056 8 33 4.8 11.3 0.08 0.23 0.23 89 1014.4
20260507132839 8 34 8.0 20.9 0.08 0.23 0.23 89 1014.4
20260507132415 8 30 8.0 12.9 0.10 0.23 0.23 89 1014.3
20260507132156 8 30 11.3 22.5 0.10 0.23 0.23 89 1014.4
20260507131818 8 36 4.8 12.9 0.13 0.23 0.23 89 1014.4
20260507131516 8 32 6.4 14.5 0.13 0.23 0.23 89 1014.4
20260507131215 8 37 8.0 14.5 0.15 0.23 0.23 89 1014.4
20260507130916 8 21 8.0 16.1 0.13 0.23 0.23 89 1014.4
20260507130616 8 10 8.0 19.3 0.13 0.23 0.23 89 1014.4
20260507130316 8 11 4.8 12.9 0.13 0.23 0.23 89 1014.4
20260507130015 8 16 6.4 14.5 0.15 0.23 0.23 89 1014.3
20260507125755 8 15 11.3 19.3 0.15 0.23 0.23 89 1014.3
20260507125419 8 21 4.8 11.3 0.15 0.23 0.23 89 1014.4
20260507125115 8 22 8.0 16.1 0.15 0.23 0.23 89 1014.4
20260507124816 8 17 8.0 12.9 0.15 0.20 0.20 89 1014.4
20260507124516 8 22 8.0 14.5 0.15 0.20 0.20 89 1014.3
20260507124339 7 12 8.0 14.5 0.15 0.20 0.20 89 1014.3
20260507123916 7 14 8.0 14.5 0.15 0.20 0.20 89 1014.2
20260507123615 7 20 8.0 17.7 0.15 0.18 0.18 88 1014.2
20260507123316 7 20 9.7 19.3 0.15 0.18 0.18 88 1014.2
20260507123015 7 12 9.7 19.3 0.15 0.15 0.15 88 1014.1
20260507122716 7 20 8.0 19.3 0.15 0.15 0.15 88 1014.0
20260507122619 7 13 6.4 12.9 0.13 0.15 0.15 88 1014.0
20260507122116 8 25 8.0 19.3 0.13 0.15 0.15 88 1013.9
20260507121816 8 15 6.4 11.3 0.10 0.13 0.13 88 1013.9
20260507121516 8 24 4.8 14.5 0.13 0.13 0.13 88 1013.9
20260507121216 8 17 9.7 19.3 0.10 0.10 0.10 88 1013.8
20260507120916 8 15 4.8 19.3 0.10 0.10 0.10 88 1013.8
20260507120659 8 24 6.4 14.5 0.10 0.10 0.10 88 1013.7
20260507120316 8 26 6.4 12.9 0.10 0.10 0.10 88 1013.7
20260507120016 8 29 8.0 16.1 0.08 0.08 0.08 88 1013.7
20260507115716 8 15 4.8 9.7 0.08 0.08 0.08 87 1013.7
20260507115415 8 19 8.0 16.1 0.08 0.08 0.08 87 1013.6
20260507115159 8 25 8.0 17.7 0.08 0.08 0.08 87 1013.7
20260507114815 8 33 6.4 12.9 0.05 0.05 0.05 87 1013.6
20260507114556 8 36 6.4 14.5 0.05 0.05 0.05 87 1013.6
20260507114216 8 19 6.4 14.5 0.05 0.05 0.05 86 1013.6
20260507113919 8 35 8.0 12.9 0.05 0.05 0.05 86 1013.7
20260507113616 8 32 8.0 16.1 0.05 0.05 0.05 86 1013.6
20260507113315 8 26 4.8 11.3 0.03 0.03 0.03 86 1013.6
20260507113016 8 35 4.8 14.5 0.03 0.03 0.03 86 1013.6
20260507112838 8 33 4.8 9.7 0.03 0.03 0.03 86 1013.6
20260507112416 8 41 6.4 14.5 0.03 0.03 0.03 85 1013.6
20260507112116 8 28 6.4 16.1 0.03 0.03 0.03 85 1013.6
20260507111816 8 32 9.7 19.3 0.03 0.03 0.03 85 1013.6
20260507111556 8 32 9.7 19.3 0.00 0.00 0.00 85 1013.6
20260507111215 8 39 4.8 11.3 0.00 0.00 0.00 85 1013.5
20260507110916 8 34 4.8 9.7 0.00 0.00 0.00 85 1013.6
20260507110615 8 33 4.8 14.5 0.00 0.00 0.00 85 1013.6
20260507110435 8 26 8.0 14.5 0.00 0.00 0.00 85 1013.6
20260507110015 8 30 9.7 16.1 0.00 0.00 0.00 85 1013.6
20260507105836 8 33 8.0 16.1 0.00 0.00 0.00 85 1013.6
20260507105459 8 24 8.0 16.1 0.00 0.00 0.00 85 1013.6
20260507105115 8 33 9.7 17.7 0.00 0.00 0.00 85 1013.6
20260507104816 8 36 8.0 14.5 0.00 0.00 0.00 85 1013.6
20260507104515 8 29 8.0 16.1 0.00 0.00 0.00 85 1013.6
20260507104219 8 30 4.8 11.3 0.00 0.00 0.00 85 1013.6
20260507103916 8 22 4.8 11.3 0.00 0.00 0.00 85 1013.6
20260507103616 8 34 6.4 11.3 0.00 0.00 0.00 85 1013.6
20260507103356 8 34 6.4 16.1 0.00 0.00 0.00 85 1013.6
20260507103055 8 20 4.8 9.7 0.00 0.00 0.00 85 1013.5
20260507102756 8 30 6.4 14.5 0.00 0.00 0.00 85 1013.5
20260507102415 8 24 8.0 14.5 0.00 0.00 0.00 84 1013.5
20260507102116 8 29 6.4 14.5 0.00 0.00 0.00 84 1013.4
20260507101818 8 22 6.4 11.3 0.00 0.00 0.00 84 1013.4
20260507101517 8 19 8.0 14.5 0.00 0.00 0.00 84 1013.4
20260507101256 8 21 6.4 16.1 0.00 0.00 0.00 84 1013.3
20260507100915 8 19 6.4 14.5 0.00 0.00 0.00 84 1013.3
20260507100619 8 19 6.4 11.3 0.00 0.00 0.00 83 1013.3
20260507100315 8 29 4.8 11.3 0.00 0.00 0.00 83 1013.3
20260507100016 8 32 4.8 12.9 0.00 0.00 0.00 82 1013.2
20260507095756 8 49 6.4 14.5 0.00 0.00 0.00 82 1013.1
20260507095459 8 47 8.0 16.1 0.00 0.00 0.00 82 1013.1
20260507095116 8 70 6.4 17.7 0.00 0.00 0.00 82 1013.1
20260507094816 8 45 6.4 12.9 0.00 0.00 0.00 82 1013.0
20260507094516 8 30 8.0 16.1 0.00 0.00 0.00 82 1013.0
20260507094215 8 34 8.0 19.3 0.00 0.00 0.00 82 1013.0
20260507093916 8 49 12.9 19.3 0.00 0.00 0.00 82 1013.0
20260507093615 8 49 9.7 17.7 0.00 0.00 0.00 83 1012.9
20260507093356 8 54 8.0 16.1 0.00 0.00 0.00 83 1012.8
20260507093019 8 49 4.8 11.3 0.00 0.00 0.00 83 1012.8
20260507092756 8 51 6.4 14.5 0.00 0.00 0.00 83 1012.7
20260507092416 8 35 9.7 17.7 0.00 0.00 0.00 83 1012.7
20260507092115 8 50 9.7 16.1 0.00 0.00 0.00 83 1012.7
20260507091856 8 38 9.7 17.7 0.00 0.00 0.00 83 1012.6
20260507091516 8 46 8.0 19.3 0.00 0.00 0.00 84 1012.6
20260507091216 8 38 6.4 14.5 0.00 0.00 0.00 84 1012.6
20260507090916 8 33 8.0 17.7 0.00 0.00 0.00 84 1012.5
20260507090656 8 44 9.7 16.1 0.00 0.00 0.00 84 1012.5
20260507090356 8 27 6.4 14.5 0.00 0.00 0.00 84 1012.5
20260507090015 8 31 8.0 16.1 0.00 0.00 0.00 83 1012.4
20260507085756 8 41 6.4 16.1 0.00 0.00 0.00 83 1012.4
20260507085415 8 46 9.7 17.7 0.00 0.00 0.00 83 1012.4
20260507085116 8 50 8.0 14.5 0.00 0.00 0.00 83 1012.4
20260507084816 8 57 6.4 17.7 0.00 0.00 0.00 84 1012.3
20260507084516 8 34 4.8 16.1 0.00 0.00 0.00 84 1012.3
20260507084215 8 33 8.0 19.3 0.00 0.00 0.00 84 1012.2
20260507083915 8 44 8.0 14.5 0.00 0.00 0.00 84 1012.2
20260507083616 8 36 8.0 16.1 0.00 0.00 0.00 84 1012.2
20260507083359 8 36 9.7 20.9 0.00 0.00 0.00 84 1012.2
20260507083056 8 33 8.0 20.9 0.00 0.00 0.00 83 1012.2
20260507082756 8 31 9.7 20.9 0.00 0.00 0.00 83 1012.1
20260507082459 8 38 8.0 14.5 0.00 0.03 0.00 83 1012.1
20260507082116 8 41 9.7 19.3 0.00 0.03 0.00 83 1012.0
20260507081815 8 33 9.7 17.7 0.00 0.03 0.00 83 1012.0
20260507081516 8 45 9.7 17.7 0.00 0.03 0.00 83 1012.0
20260507081256 8 31 9.7 25.7 0.00 0.03 0.00 84 1011.9
20260507080916 8 50 12.9 20.9 0.00 0.03 0.00 84 1011.8
20260507080656 7 48 11.3 19.3 0.00 0.03 0.00 84 1011.9
20260507080319 7 48 11.3 17.7 0.00 0.03 0.00 84 1011.8
20260507080016 7 47 11.3 20.9 0.00 0.03 0.00 85 1011.8
20260507075715 7 41 9.7 16.1 0.00 0.05 0.00 85 1011.8
20260507075419 7 38 4.8 17.7 0.00 0.05 0.00 85 1011.8
20260507075116 7 36 9.7 16.1 0.00 0.05 0.00 85 1011.8
20260507074816 7 22 8.0 16.1 0.00 0.05 0.00 85 1011.7
20260507074516 7 42 8.0 17.7 0.00 0.05 0.00 85 1011.6
20260507074256 7 41 9.7 17.7 0.00 0.05 0.00 85 1011.6
20260507073956 7 39 9.7 19.3 0.00 0.05 0.00 85 1011.6
20260507073655 7 40 8.0 17.7 0.00 0.05 0.00 86 1011.6
20260507073316 7 35 9.7 16.1 0.00 0.05 0.00 86 1011.6
20260507073016 7 37 9.7 16.1 0.00 0.05 0.00 86 1011.5
20260507072716 7 40 8.0 14.5 0.00 0.05 0.00 86 1011.5
20260507072416 7 20 8.0 20.9 0.00 0.05 0.00 86 1011.4
20260507072159 7 27 8.0 19.3 0.00 0.05 0.00 86 1011.3
20260507071816 7 23 8.0 16.1 0.00 0.05 0.00 86 1011.3
20260507071515 7 35 9.7 16.1 0.00 0.05 0.00 86 1011.3
20260507071216 7 27 8.0 17.7 0.00 0.05 0.00 86 1011.3
20260507070915 7 27 9.7 19.3 0.00 0.05 0.00 86 1011.2
20260507070616 7 28 8.0 16.1 0.00 0.05 0.00 87 1011.2
20260507070316 7 26 9.7 20.9 0.00 0.05 0.00 87 1011.2
20260507070016 7 32 11.3 19.3 0.00 0.05 0.00 87 1011.2
20260507065716 7 41 9.7 19.3 0.00 0.05 0.00 87 1011.1
20260507065415 7 40 9.7 19.3 0.00 0.05 0.00 88 1011.1
20260507065116 7 20 9.7 19.3 0.00 0.05 0.00 87 1011.1
20260507064815 7 25 8.0 16.1 0.00 0.05 0.00 88 1011.1
20260507064516 7 30 12.9 24.1 0.00 0.05 0.00 88 1011.1
20260507064256 7 28 9.7 22.5 0.00 0.05 0.00 88 1011.1
20260507063916 7 30 11.3 19.3 0.00 0.05 0.00 88 1011.0
20260507063656 7 32 11.3 25.7 0.00 0.05 0.00 88 1011.0
20260507063315 7 35 9.7 19.3 0.00 0.05 0.00 88 1011.0
20260507063016 7 37 11.3 20.9 0.00 0.05 0.00 88 1010.9
20260507062716 7 37 9.7 24.1 0.00 0.05 0.00 89 1010.8
20260507062416 7 26 9.7 22.5 0.00 0.05 0.00 88 1010.8
20260507062116 7 21 12.9 20.9 0.00 0.05 0.00 89 1010.9
20260507061936 7 31 6.4 17.7 0.00 0.05 0.00 89 1010.8
20260507061516 7 26 6.4 16.1 0.00 0.05 0.00 89 1010.8
20260507061338 7 21 9.7 17.7 0.00 0.05 0.00 89 1010.7
20260507060916 7 28 9.7 20.9 0.00 0.05 0.00 89 1010.7
20260507060615 7 29 9.7 19.3 0.00 0.05 0.00 89 1010.7
20260507060316 7 37 9.7 16.1 0.00 0.05 0.00 89 1010.7
20260507060016 7 24 6.4 16.1 0.00 0.05 0.00 89 1010.7
20260507055756 7 22 8.0 19.3 0.00 0.05 0.00 89 1010.6
20260507055416 7 31 6.4 16.1 0.00 0.05 0.00 89 1010.6
20260507055116 7 28 8.0 17.7 0.00 0.05 0.00 89 1010.6
20260507054816 7 29 9.7 17.7 0.00 0.05 0.00 88 1010.5
20260507054515 7 18 9.7 16.1 0.00 0.05 0.00 88 1010.5
20260507054336 7 17 9.7 17.7 0.00 0.05 0.00 88 1010.5
20260507053916 7 17 11.3 19.3 0.00 0.05 0.00 88 1010.4
20260507053616 7 24 8.0 14.5 0.00 0.05 0.00 88 1010.4
20260507053316 7 22 8.0 19.3 0.00 0.08 0.00 88 1010.4
20260507053016 7 26 8.0 14.5 0.00 0.08 0.00 88 1010.3
20260507052716 7 23 9.7 19.3 0.00 0.08 0.00 88 1010.3
20260507052458 7 23 9.7 16.1 0.00 0.08 0.00 88 1010.3
20260507052116 7 14 6.4 14.5 0.00 0.10 0.00 88 1010.2
20260507051816 7 18 6.4 12.9 0.00 0.10 0.00 88 1010.2
20260507051517 7 25 9.7 24.1 0.00 0.10 0.00 88 1010.2
20260507051256 7 36 8.0 16.1 0.00 0.10 0.00 88 1010.2
20260507050916 7 28 8.0 16.1 0.00 0.10 0.00 88 1010.1
20260507050616 7 21 6.4 14.5 0.00 0.13 0.00 88 1010.1
20260507050315 7 31 4.8 14.5 0.00 0.13 0.00 88 1010.1
20260507050016 7 34 8.0 16.1 0.00 0.15 0.00 88 1010.1
20260507045716 7 35 8.0 17.7 0.00 0.15 0.00 88 1010.1
20260507045416 7 35 6.4 14.5 0.00 0.15 0.00 88 1010.1
20260507045159 7 32 6.4 19.3 0.00 0.15 0.00 88 1010.0
20260507044815 7 36 6.4 16.1 0.00 0.18 0.00 88 1010.0
20260507044516 7 31 6.4 11.3 0.00 0.18 0.00 88 1009.9
20260507044215 7 32 6.4 14.5 0.00 0.20 0.00 88 1009.9
20260507043916 7 37 6.4 12.9 0.00 0.20 0.00 88 1009.8
20260507043618 7 29 9.7 17.7 0.00 0.23 0.00 88 1009.8
20260507043316 7 29 9.7 20.9 0.00 0.23 0.00 88 1009.7
20260507043019 7 31 4.8 12.9 0.00 0.25 0.00 88 1009.7
20260507042756 7 33 4.8 11.3 0.00 0.28 0.00 88 1009.7
20260507042418 7 22 3.2 9.7 0.00 0.30 0.00 88 1009.6
20260507042115 7 30 6.4 12.9 0.00 0.30 0.00 87 1009.6
20260507041816 7 34 8.0 17.7 0.00 0.30 0.00 88 1009.6
20260507041516 7 17 3.2 8.0 0.00 0.30 0.00 87 1009.6
20260507041216 7 13 4.8 11.3 0.00 0.33 0.00 87 1009.5
20260507040916 7 42 6.4 12.9 0.00 0.33 0.00 87 1009.5
20260507040656 7 24 6.4 11.3 0.00 0.33 0.00 87 1009.6
20260507040316 7 15 8.0 14.5 0.00 0.33 0.00 87 1009.5
20260507040135 7 30 4.8 11.3 0.00 0.33 0.00 87 1009.4
20260507035716 7 25 6.4 16.1 0.00 0.33 0.00 87 1009.4
20260507035456 7 19 8.0 14.5 0.00 0.33 0.00 87 1009.3
20260507035116 7 33 6.4 12.9 0.00 0.33 0.00 87 1009.3
20260507034816 7 19 8.0 17.7 0.00 0.33 0.00 87 1009.3
20260507034516 7 19 6.4 19.3 0.00 0.33 0.00 87 1009.4
20260507034216 7 14 9.7 19.3 0.00 0.33 0.00 87 1009.4
20260507033915 7 26 4.8 11.3 0.00 0.33 0.00 87 1009.4
20260507033616 7 38 6.4 16.1 0.00 0.33 0.00 87 1009.4
20260507033359 7 32 6.4 17.7 0.00 0.33 0.00 87 1009.3
20260507033016 7 39 8.0 16.1 0.00 0.33 0.00 87 1009.3
20260507032716 7 37 4.8 11.3 0.00 0.33 0.00 87 1009.3
20260507032416 7 41 8.0 14.5 0.00 0.33 0.00 87 1009.4
20260507032116 7 32 8.0 14.5 0.00 0.33 0.00 87 1009.4
20260507031815 7 24 4.8 16.1 0.00 0.33 0.00 87 1009.4
20260507031516 7 44 6.4 12.9 0.00 0.33 0.00 87 1009.4
20260507031259 7 47 4.8 8.0 0.00 0.33 0.00 87 1009.3
20260507030956 7 41 6.4 12.9 0.00 0.33 0.00 87 1009.3
20260507030616 7 33 6.4 16.1 0.00 0.33 0.00 87 1009.4
20260507030316 7 16 4.8 14.5 0.00 0.33 0.00 87 1009.4
20260507030019 7 32 6.4 12.9 0.00 0.33 0.00 87 1009.4
20260507025715 7 21 6.4 14.5 0.00 0.33 0.00 87 1009.4
20260507025416 7 23 8.0 16.1 0.00 0.33 0.00 87 1009.3
20260507025116 7 29 6.4 11.3 0.00 0.33 0.00 87 1009.3
20260507024819 7 27 4.8 11.3 0.00 0.33 0.00 87 1009.3
20260507024515 7 33 6.4 11.3 0.00 0.33 0.00 87 1009.4
20260507024216 7 22 8.0 12.9 0.00 0.33 0.00 87 1009.4
20260507023916 7 11 6.4 11.3 0.00 0.36 0.00 87 1009.4
20260507023615 7 20 4.8 14.5 0.00 0.36 0.00 87 1009.3
20260507023316 7 17 8.0 16.1 0.00 0.36 0.00 87 1009.3
20260507023016 7 20 6.4 12.9 0.00 0.38 0.00 87 1009.4
20260507022718 7 21 4.8 12.9 0.00 0.41 0.00 87 1009.3
20260507022415 7 16 6.4 11.3 0.00 0.41 0.00 87 1009.4
20260507022116 7 18 4.8 14.5 0.00 0.41 0.00 87 1009.3
20260507021816 7 17 4.8 9.7 0.00 0.43 0.00 87 1009.3
20260507021515 7 12 6.4 11.3 0.00 0.43 0.00 87 1009.3
20260507021219 7 12 6.4 11.3 0.00 0.48 0.00 87 1009.2
20260507020916 7 10 6.4 14.5 0.00 0.51 0.00 87 1009.3
20260507020616 7 10 6.4 16.1 0.00 0.51 0.00 87 1009.2
20260507020331 7 6 6.4 12.9 0.00 0.56 0.00 87 1009.2
20260507020016 7 19 6.4 11.3 0.00 0.58 0.00 87 1009.2
20260507015716 7 14 8.0 16.1 0.00 0.61 0.00 87 1009.1
20260507015416 7 25 8.0 14.5 0.00 0.64 0.00 87 1009.1
20260507015116 7 20 4.8 14.5 0.00 0.66 0.00 87 1009.2
20260507014816 7 15 6.4 14.5 0.00 0.71 0.00 87 1009.2
20260507014516 7 13 6.4 12.9 0.00 0.74 0.00 87 1009.2
20260507014215 7 10 6.4 14.5 0.00 0.76 0.00 87 1009.2
20260507013956 7 15 6.4 11.3 0.00 0.79 0.00 87 1009.1
20260507013616 7 28 8.0 17.7 0.00 0.81 0.00 87 1009.1
20260507013316 7 19 8.0 16.1 0.00 0.84 0.00 87 1009.0
20260507013016 7 30 6.4 12.9 0.00 0.86 0.00 87 1009.0
20260507012716 7 14 8.0 16.1 0.00 0.86 0.00 87 1008.9
20260507012419 7 25 6.4 14.5 0.00 0.89 0.00 87 1008.9
20260507012115 7 18 9.7 20.9 0.00 0.89 0.00 87 1008.8
20260507011816 7 26 9.7 20.9 0.00 0.94 0.00 87 1008.7
20260507011556 7 30 6.4 12.9 0.00 0.99 0.00 87 1008.7
20260507010916 7 34 6.4 11.3 0.00 1.04 0.00 87 1008.7
20260507010619 7 14 6.4 14.5 0.00 1.09 0.00 87 1008.7
20260507010316 7 24 8.0 17.7 0.00 1.14 0.00 87 1008.6
20260507010016 7 7 4.8 9.7 0.00 1.17 0.00 87 1008.6
20260507005716 7 29 8.0 16.1 0.00 1.17 0.00 87 1008.5
20260507005428 7 23 6.4 25.7 0.00 1.17 0.00 87 1008.4
20260507005116 7 18 6.4 12.9 0.00 1.19 0.00 87 1008.4
20260507004816 7 29 4.8 9.7 0.00 1.19 0.00 87 1008.4
20260507004516 7 35 6.4 14.5 0.00 1.19 0.00 87 1008.5
20260507004216 7 15 6.4 12.9 0.00 1.19 0.00 87 1008.6
20260507003956 7 18 6.4 14.5 0.00 1.19 0.00 87 1008.6
20260507003616 7 27 6.4 12.9 0.00 1.19 0.00 88 1008.6
20260507003316 7 30 6.4 16.1 0.00 1.19 0.00 88 1008.6
20260507003015 7 30 4.8 12.9 0.00 1.19 0.00 88 1008.5
20260507002716 7 0 1.6 9.7 0.00 1.19 0.00 88 1008.4
20260507002416 7 21 8.0 16.1 0.00 1.19 0.00 88 1008.3
20260507002116 7 29 9.7 17.7 0.00 1.19 0.00 88 1008.3
20260507001815 7 28 8.0 14.5 0.00 1.22 0.00 88 1008.4
20260507001516 7 33 6.4 12.9 0.00 1.22 0.00 88 1008.5
20260507001216 7 45 6.4 14.5 0.00 1.24 0.00 88 1008.6
20260507000919 7 28 4.8 11.3 0.00 1.24 0.00 88 1008.6
20260507000615 7 26 9.7 19.3 0.00 1.24 0.00 88 1008.5
20260507000316 7 29 6.4 16.1 0.00 1.27 0.00 88 1008.6
20260507000056 7 25 4.8 16.1 0.00 1.27 0.00 88 1008.5
20260506235719 7 25 9.7 17.7 0.00 1.27 0.00 88 1008.4
20260506235416 7 13 8.0 17.7 0.00 1.32 0.00 88 1008.4
20260506235156 7 17 9.7 17.7 0.00 1.37 0.00 88 1008.4
20260506234816 7 13 8.0 20.9 0.00 1.37 0.00 88 1008.4
20260506234516 7 12 11.3 22.5 0.00 1.42 0.00 88 1008.5
20260506234216 7 6 14.5 22.5 0.00 1.45 0.00 88 1008.4
20260506233916 7 7 11.3 22.5 0.00 1.47 0.00 87 1008.5
20260506233615 8 3 8.0 19.3 0.00 1.52 0.00 88 1008.5
20260506233359 8 15 8.0 16.1 0.00 1.52 0.00 87 1008.5
20260506233016 8 20 8.0 14.5 0.00 1.55 0.00 87 1008.5
20260506232716 8 11 11.3 22.5 0.00 1.55 0.00 87 1008.4
20260506232416 8 8 11.3 25.7 0.00 1.55 0.00 87 1008.4
20260506232116 8 24 9.7 17.7 0.00 1.55 0.00 87 1008.3
20260506231856 8 38 8.0 19.3 0.00 1.55 0.00 87 1008.3
20260506231515 8 22 8.0 16.1 0.00 1.55 0.00 87 1008.2
20260506231216 8 26 8.0 20.9 0.00 1.55 0.00 87 1008.2
20260506230936 8 33 12.9 24.1 0.00 1.55 0.00 87 1008.2
20260506230316 8 33 11.3 17.7 0.00 1.55 0.00 87 1008.2
20260506230016 8 21 6.4 14.5 0.00 1.55 0.00 87 1008.2
20260506225716 8 36 9.7 17.7 0.00 1.55 0.00 87 1008.2
20260506225415 8 34 9.7 20.9 0.00 1.55 0.00 87 1008.2
20260506225116 8 35 6.4 11.3 0.00 1.55 0.00 87 1008.1
20260506224816 8 35 11.3 20.9 0.00 1.55 0.00 87 1008.1
20260506224516 8 33 8.0 14.5 0.00 1.55 0.00 87 1008.2
20260506224216 8 42 9.7 19.3 0.00 1.55 0.00 87 1008.2
20260506223917 8 32 6.4 12.9 0.00 1.55 0.00 87 1008.1
20260506223619 9 31 9.7 17.7 0.00 1.55 0.00 87 1008.0
20260506223315 9 19 6.4 14.5 0.00 1.55 0.00 86 1008.0
20260506223019 9 30 8.0 16.1 0.00 1.55 0.00 86 1008.0
20260506222715 9 29 9.7 16.1 0.00 1.55 0.00 86 1007.9
20260506222416 9 28 8.0 16.1 0.00 1.55 0.00 86 1007.9
20260506222115 9 20 9.7 17.7 0.00 1.55 0.00 86 1007.8
20260506221856 9 27 8.0 19.3 0.00 1.55 0.00 87 1007.7
20260506221516 9 24 4.8 11.3 0.00 1.55 0.00 86 1007.7
20260506221215 9 34 6.4 17.7 0.00 1.55 0.00 86 1007.6
20260506220955 9 33 9.7 16.1 0.00 1.55 0.00 86 1007.6
20260506220616 9 19 4.8 9.7 0.00 1.55 0.00 86 1007.6
20260506220316 9 28 6.4 14.5 0.00 1.55 0.00 86 1007.6
20260506220019 9 28 11.3 22.5 0.00 1.55 0.00 86 1007.6
20260506215716 9 29 9.7 16.1 0.00 1.55 1.55 86 1007.7
20260506215456 9 28 8.0 16.1 0.00 1.55 1.55 87 1007.7
20260506215115 9 30 6.4 19.3 0.00 1.55 1.55 87 1007.7
20260506214816 9 30 8.0 16.1 0.00 1.55 1.55 87 1007.7
20260506214516 9 21 8.0 16.1 0.00 1.55 1.55 87 1007.7